Location: *
(49.3500°N, 12.6000°E)
Time: 12:12:03
(UTC+00:00)

Cosmos 1908 - Pass Details

Date: 18 October 2019
Orbit: 511 x 532 km, 82.5° (Epoch: 13 November)

Event Time Altitude Azimuth Distance (km) Brightness Sun altitude
Rises 17:35:25 0° 183° (S) 2,663 6.8 -14.0°
Reaches altitude 10° 17:37:34 10° 182° (S) 1,776 5.9 -14.3°
Maximum altitude 17:41:27 73° 98° (E) 560 3.1 -14.9°
Drops below altitude 10° 17:45:21 10° 14° (NNE) 1,782 5.8 -15.6°
Sets 17:47:30 0° 12° (NNE) 2,673 6.7 -15.9°
